2020-081J

Last updated on Fri Dec 04 2020 00:02:02 GMT+0000 (Coordinated Universal Time)

1 46913U 20081J 20338.34590270 .00000817 00000-0 71549-4 0 9996 2 46913 36.9043 306.2379 0009815 200.4984 159.5365 14.99466319 3201
UTC large
Height (km)
Speed (km/s)
/
Latitude / Longitude
Inclination (degrees)
Orbital Period (minutes)
Azimuth
Elevation
Range (km)
Doppler Factor

Next 0 passes for location: London (51.5072 / 0.1276)

Sorry there are no passes over London.